Location: Franzen
(48.6167°N, 15.3833°E)
Time: 14:09:50
(UTC+00:00)

Cosmos 2058 Rocket - Pass Details

Date: 22 April 2021
Orbit: 611 x 638 km, 82.5° (Epoch: 16 May)

Event Time Altitude Azimuth Distance (km) Brightness Sun altitude
Rises 18:30:36 0° 187° (S) 2,864 6.3 -5.4°
Reaches altitude 10° 18:32:48 10° 188° (S) 1,963 5.5 -5.8°
Maximum altitude 18:37:09 89° 112° (ESE) 619 3.1 -6.4°
Drops below altitude 10° 18:41:33 10° 10° (N) 1,981 5.9 -7.0°
Sets 18:43:47 0° 10° (N) 2,893 6.7 -7.4°
